Wind_Speed
8 8 9 9 9 9 9 9 9 9 9 9 9 9 10 10 10 10 11 11 11 11 12 12 13 14 14 13 12 11 12 12 9 6 6 5 5 7 9 7 4 8 11 9 8 9 6 4 5 5 5 3 2 0 1 1 2 2 3 2 3 3 4 6 8 7 4 4 6 4 1 2 7 5 2 1 1 3 4 5 5 6 8 9 7 6 4 6
9 9 9 9 9 9 9 9 9 9 9 9 10 10 10 10 10 10 10 11 11 11 11 12 13 13 14 14 12 12 14 14 10 7 6 1 2 5 8 9 6 8 11 10 10 12 7 3 6 6 4 1 1 1 1 1 2 2 4 2 4 6 6 6 8 6 5 5 6 6 3 3 7 4 1 3 6 4 5 8 5 7 11 12 9 6 6 12
9 9 9 9 9 9 9 9 10 10 10 10 10 10 10 10 11 11 11 11 11 11 11 12 12 13 13 13 11 11 13 11 7 4 3 3 4 5 5 9 8 8 11 8 8 10 6 6 10 7 4 1 1 1 1 0 2 2 4 2 6 7 6 5 7 8 8 5 4 8 4 3 6 4 1 3 7 5 7 9 6 8 12 13 8 7 10 15
9 9 9 9 9 9 9 9 10 10 10 11 11 11 11 11 11 11 11 11 11 11 12 12 12 13 13 13 10 11 11 7 4 4 6 1 6 5 2 8 9 9 11 7 5 7 3 6 9 6 4 0 3 2 1 3 2 2 4 5 7 5 5 7 9 10 8 4 4 6 4 5 6 2 3 3 6 8 9 10 11 13 13 13 8 8 12 14
9 9 9 10 10 10 10 10 10 10 10 11 11 12 12 12 12 12 12 12 12 12 12 12 12 13 13 12 9 9 9 5 2 4 4 4 7 5 1 7 10 10 12 9 5 7 6 7 6 5 3 1 2 2 3 5 4 2 5 7 6 5 4 7 8 9 6 3 4 4 5 7 3 1 5 6 5 11 9 8 13 15 13 12 8 8 9 10
8 8 8 9 9 10 10 10 10 11 11 11 12 12 12 13 13 13 13 13 13 12 13 12 12 12 12 11 8 6 4 1 5 4 5 8 7 5 2 7 10 11 12 9 7 8 6 6 4 2 2 0 3 4 5 3 3 3 5 5 7 6 6 6 5 6 5 4 5 5 5 4 4 7 6 9 11 16 13 8 10 12 11 10 5 7 9 11
7 7 7 8 8 9 9 10 10 11 12 12 13 13 13 13 13 14 14 14 13 13 13 12 12 12 11 10 6 4 3 5 13 11 11 10 8 5 4 7 10 12 13 10 8 7 5 5 3 4 3 1 4 6 5 1 2 4 5 5 7 7 9 9 5 3 4 6 8 3 5 7 10 9 1 8 13 19 16 9 9 11 10 8 5 8 11 13
6 6 6 7 7 8 9 10 11 12 12 12 13 14 14 14 14 15 15 15 15 14 14 13 12 11 11 7 3 4 1 9 18 16 12 9 8 6 6 8 11 13 14 14 11 8 5 6 6 4 2 4 4 4 3 2 1 5 8 5 3 4 8 9 7 5 6 8 7 2 7 16 14 6 4 9 15 20 17 10 9 11 9 8 9 10 11 11
6 6 6 7 7 8 9 10 12 13 13 14 14 14 15 15 15 15 15 16 16 15 14 13 13 11 10 4 3 3 5 9 12 9 8 7 8 7 8 8 11 14 13 13 12 10 6 6 7 5 4 4 4 4 3 3 4 7 9 6 4 5 7 8 8 7 7 6 4 4 11 19 9 3 9 13 19 20 13 10 9 9 10 9 10 11 11 11
6 6 7 7 8 9 10 12 13 14 15 16 16 16 16 15 15 16 16 17 16 16 14 13 12 9 7 1 2 5 7 6 6 7 8 9 10 9 10 9 12 16 13 9 12 12 8 8 7 5 4 2 4 4 3 5 4 4 5 6 7 8 8 5 7 7 5 5 7 8 13 17 5 1 7 11 14 11 6 9 7 5 10 10 10 10 10 11
7 8 8 9 10 11 12 13 15 16 17 17 18 18 17 16 16 17 17 17 17 16 14 12 11 8 4 2 3 7 6 5 7 9 10 11 12 11 11 11 13 16 14 8 12 16 11 8 7 5 2 2 3 2 3 5 2 1 1 6 9 8 9 7 8 7 4 5 9 12 11 13 4 1 12 17 9 2 6 11 8 6 9 9 9 10 8 10
7 8 9 10 10 12 13 15 16 17 18 19 19 19 18 17 17 18 18 18 17 16 14 12 9 6 2 1 7 14 14 11 11 11 12 12 12 11 11 12 13 15 15 9 9 15 14 8 8 6 4 3 1 1 4 3 0 2 2 5 10 7 10 11 8 5 7 4 5 9 4 7 7 10 18 19 5 1 6 11 11 10 9 8 9 8 7 10
7 9 10 10 12 13 15 16 18 19 20 20 20 19 18 19 19 20 19 18 17 16 13 10 8 5 2 2 7 14 19 19 18 17 16 16 14 12 10 11 12 12 14 10 5 7 12 11 9 7 3 4 3 2 1 2 2 4 2 0 7 7 9 8 1 1 4 5 6 7 3 6 10 16 19 12 3 2 6 10 12 11 8 8 8 7 9 10
8 9 11 12 13 15 16 17 19 20 21 21 20 20 20 21 21 20 19 18 17 14 11 7 5 5 4 6 10 9 14 17 19 20 19 18 14 10 8 9 10 11 10 9 4 1 7 11 7 3 1 3 3 3 2 4 3 4 2 1 3 3 7 5 2 2 2 3 7 6 5 8 9 16 19 8 4 7 8 10 12 10 9 8 8 7 9 10
9 10 11 13 14 16 17 18 20 22 22 22 22 22 22 21 20 18 17 16 13 9 6 4 7 7 3 8 12 9 11 13 15 18 18 19 15 8 6 8 7 8 8 6 4 3 6 8 6 2 2 1 1 3 4 4 3 2 2 4 3 3 6 10 5 5 7 4 3 6 6 8 8 15 18 7 3 7 8 9 10 11 10 9 9 7 9 11
9 10 11 13 14 16 18 19 21 23 23 23 23 23 21 19 16 14 12 9 7 4 3 4 9 7 1 5 7 8 9 10 12 14 13 16 15 8 6 8 6 6 7 5 6 6 7 6 3 2 1 2 2 2 2 4 4 2 2 5 5 5 5 8 9 7 8 2 1 7 7 7 7 11 13 7 2 6 6 9 11 12 11 10 10 8 9 11
10 11 12 13 15 16 18 20 22 23 24 24 24 23 17 12 10 9 6 3 4 6 6 4 8 5 2 5 6 8 6 7 10 9 8 11 11 9 8 7 5 8 8 5 6 5 3 2 0 0 1 1 2 2 2 2 4 3 2 5 5 6 6 4 9 7 3 5 5 7 9 11 12 9 10 11 9 7 7 10 13 13 12 12 10 9 11 11
10 12 13 14 15 17 18 21 23 24 25 24 25 21 10 5 6 7 7 9 11 9 6 3 5 2 4 6 6 5 2 3 5 4 5 7 9 10 8 6 6 9 7 4 2 2 1 2 2 1 2 2 2 4 3 6 7 7 6 5 4 4 6 5 8 6 2 3 5 4 9 15 16 11 10 13 13 14 14 13 14 15 14 13 11 11 13 14
11 12 13 14 15 17 18 21 23 24 25 25 24 15 5 4 4 6 7 7 6 3 0 2 4 2 4 6 6 5 2 1 2 2 5 8 10 10 8 7 7 7 5 1 2 2 1 3 3 2 2 7 8 8 11 14 11 8 6 5 6 6 6 8 11 8 4 7 7 8 15 16 15 14 13 13 11 14 19 16 14 14 12 11 11 12 15 17
11 12 13 14 15 16 17 20 23 23 23 25 23 11 3 5 4 2 5 3 3 4 2 5 7 4 6 6 3 3 3 2 2 3 7 10 13 11 6 4 6 4 3 4 3 2 3 3 3 6 11 14 12 11 14 13 6 4 3 5 7 8 9 9 12 11 1 4 8 10 18 19 14 14 13 13 11 11 18 20 18 15 12 10 12 15 16 18
12 13 14 13 13 15 17 19 22 21 20 21 19 9 2 2 2 3 5 6 10 11 8 11 11 9 13 10 2 1 1 2 2 3 8 10 13 10 1 2 5 1 3 4 3 0 2 5 7 12 16 11 6 7 9 8 6 5 5 7 7 6 12 11 11 13 2 1 7 7 17 20 14 13 12 12 14 14 17 20 20 18 14 12 12 17 19 17
12 12 13 13 12 14 15 18 20 18 17 17 16 9 3 1 1 3 2 4 11 10 11 13 10 10 18 16 7 1 2 3 4 2 9 9 6 5 2 4 5 4 2 3 2 2 2 5 11 15 11 4 3 1 2 4 6 7 5 6 7 5 10 10 8 10 3 1 7 7 16 19 13 14 14 15 17 17 15 15 19 19 16 15 15 17 17 16
10 10 12 12 12 13 13 17 18 16 17 15 11 6 1 1 2 3 1 2 8 6 7 9 6 7 12 13 8 5 3 6 6 4 10 9 2 4 4 5 5 3 4 6 7 6 5 6 12 14 7 4 6 1 3 2 5 6 5 5 8 5 6 8 4 6 4 3 7 10 16 17 12 14 15 16 17 16 14 13 16 17 16 19 19 15 14 16
10 10 10 11 12 12 12 17 15 12 16 11 7 6 3 2 1 2 1 2 5 6 6 6 4 5 6 5 4 8 5 5 4 5 10 12 4 2 4 5 5 3 6 10 11 11 9 7 6 6 6 8 8 4 2 5 6 7 7 6 10 10 10 10 5 7 6 5 5 7 14 13 6 8 8 9 10 11 13 13 13 17 20 19 14 14 15 16
12 11 10 10 12 11 13 15 9 11 16 8 5 9 6 3 1 2 0 2 3 6 5 3 2 3 4 2 5 7 3 2 4 4 9 11 6 3 2 2 4 5 9 10 10 10 10 6 3 3 4 7 6 6 6 7 9 7 6 11 16 15 11 11 9 7 6 5 4 5 8 10 2 6 6 6 4 7 9 10 14 18 19 13 9 13 14 14
15 13 10 10 10 11 11 8 6 13 14 5 4 10 8 5 3 1 1 3 4 5 2 1 1 0 2 2 2 4 3 2 4 1 3 5 4 4 2 1 1 4 7 6 4 4 5 4 3 5 6 6 6 6 8 9 7 8 5 11 15 11 9 10 9 4 2 4 3 4 1 9 6 3 8 8 5 9 9 9 15 17 13 9 8 12 11 12
17 16 12 9 9 9 7 4 8 12 7 3 7 10 9 7 3 1 1 3 4 2 2 1 1 2 1 1 1 3 2 3 3 3 1 0 1 1 1 3 1 1 3 2 2 3 4 2 1 3 4 6 5 6 7 10 5 7 4 6 8 7 8 7 5 4 4 3 4 1 4 6 12 4 5 7 6 8 11 12 16 13 9 10 10 12 11 13
17 17 13 10 8 8 7 6 8 7 4 5 9 10 9 6 3 2 3 2 4 1 2 2 1 2 0 2 4 3 1 2 2 1 2 1 1 1 0 6 5 4 3 4 4 3 4 4 5 5 5 4 6 5 6 12 7 6 2 4 4 5 5 3 4 4 2 4 4 2 4 2 12 6 2 0 4 7 13 14 14 10 9 10 11 12 12 14
12 12 11 9 8 9 8 9 8 5 6 6 7 10 8 5 3 4 3 2 2 2 1 0 2 1 2 2 2 2 1 1 1 2 3 1 1 3 2 6 6 5 4 4 7 5 1 4 6 8 5 6 7 4 8 12 7 4 5 5 4 3 2 3 3 3 2 3 5 5 5 3 11 7 4 3 2 7 10 9 9 9 9 10 10 12 11 12
7 7 8 7 8 7 7 9 10 8 8 6 6 10 7 3 2 3 2 3 1 1 1 1 1 1 3 3 3 3 1 2 1 2 3 1 2 4 1 3 5 3 3 2 7 7 2 1 3 5 5 5 5 3 4 8 6 3 5 4 5 4 4 4 1 3 3 6 6 10 12 7 7 5 4 3 4 6 5 6 7 7 9 9 9 10 10 9
6 5 5 6 7 6 4 5 7 6 6 6 7 8 6 3 3 3 7 2 1 3 0 1 2 2 3 2 2 2 0 3 2 1 0 1 2 4 1 1 3 2 3 4 6 6 2 1 2 3 2 4 5 3 2 1 3 3 3 3 3 4 4 4 4 3 1 7 6 10 12 9 8 6 1 4 6 5 5 6 7 8 8 9 9 9 9 7
7 6 5 5 7 8 7 3 2 1 1 2 4 4 3 2 1 5 5 3 2 3 1 0 1 2 3 2 1 2 1 2 1 3 3 2 2 2 3 4 3 1 4 3 3 5 3 5 4 2 2 5 6 2 3 3 3 4 3 3 0 4 3 3 3 1 4 8 5 5 6 5 11 8 3 9 12 10 9 7 8 9 8 10 11 9 9 8
9 9 7 6 8 12 13 9 3 2 2 1 1 3 5 1 5 4 2 2 2 1 1 1 0 1 2 2 3 3 1 2 3 3 2 3 2 4 5 4 5 2 4 2 2 4 4 4 2 2 3 4 8 6 3 2 5 6 5 5 4 2 2 4 3 2 5 6 3 2 4 4 9 6 7 13 13 11 7 7 8 9 10 11 10 10 10 9
12 12 11 10 11 14 15 14 11 7 3 2 2 3 2 7 6 2 3 5 3 3 1 2 2 1 1 2 4 3 1 3 3 3 2 2 1 3 4 5 4 2 2 1 2 2 4 7 4 6 2 5 10 10 6 4 5 6 5 5 4 5 4 5 4 4 7 5 2 1 4 4 5 3 7 10 8 7 5 4 5 7 8 7 7 8 8 8
13 13 14 14 15 16 15 16 14 11 7 4 2 2 6 9 5 1 4 4 2 4 4 1 1 3 3 3 4 3 4 5 1 3 2 3 3 4 3 4 6 5 2 2 2 2 3 8 6 2 1 8 9 6 3 5 2 3 3 4 3 5 4 4 5 6 5 3 2 3 4 5 5 5 7 8 8 8 6 6 7 8 6 4 6 7 6 7
12 12 13 14 17 18 17 17 16 13 9 5 2 6 8 7 4 3 4 2 2 2 2 4 1 3 5 2 2 2 2 3 0 1 2 3 4 5 5 4 7 9 7 4 3 2 4 6 3 1 1 6 7 3 2 4 3 1 3 3 4 3 4 4 6 4 2 5 6 6 7 7 6 8 6 2 5 6 7 6 5 7 5 2 4 6 6 7
11 11 10 13 18 19 18 18 18 16 9 4 5 8 6 5 5 5 3 2 2 3 2 3 3 3 4 2 2 2 0 1 1 2 2 2 3 4 5 4 5 11 12 7 4 3 5 6 5 4 6 4 3 2 1 2 3 4 3 4 2 1 2 2 2 2 4 8 7 7 13 11 7 7 3 4 9 10 8 6 4 5 4 0 3 5 5 7
11 11 10 14 17 18 19 20 21 15 5 2 9 10 6 4 5 5 4 2 2 0 1 4 4 3 3 4 3 1 2 3 1 2 3 3 4 4 4 3 4 9 11 8 4 3 3 5 7 4 4 2 3 2 3 4 1 3 4 2 1 2 3 2 2 2 6 10 6 7 13 11 7 9 8 7 10 10 8 6 5 4 4 4 5 6 5 6
8 6 6 7 7 12 20 22 19 10 2 4 9 9 6 6 5 4 4 3 2 2 3 5 4 3 3 5 4 1 3 4 2 2 3 3 5 3 3 2 3 4 5 5 4 2 1 3 5 1 2 0 3 0 4 3 1 0 1 2 1 3 4 3 3 2 4 9 7 7 9 7 7 9 10 9 8 7 6 5 5 5 5 6 6 6 6 6
4 2 4 5 5 8 21 20 13 5 3 6 8 7 5 5 5 4 4 3 3 3 4 4 4 4 6 7 7 4 3 3 3 3 3 3 5 5 3 3 2 1 1 3 4 2 1 4 6 2 1 1 1 4 6 5 4 2 2 3 3 2 1 2 2 1 2 6 7 7 8 6 5 5 8 8 6 5 5 4 6 7 6 6 6 7 8 9
2 1 3 6 4 13 21 14 6 4 5 6 8 9 7 5 5 4 2 2 3 3 2 3 5 6 7 7 7 5 2 3 4 4 4 4 5 6 4 2 2 1 2 2 3 2 2 4 5 2 2 5 6 5 5 6 5 5 4 4 5 4 2 4 6 4 4 6 6 8 9 6 3 5 8 6 3 4 5 4 7 9 8 7 6 8 9 10
1 3 2 5 7 21 16 6 4 4 4 5 5 6 5 4 5 6 4 2 4 2 2 2 5 6 7 7 7 6 4 3 5 5 5 5 7 8 3 5 4 2 2 2 3 2 1 0 2 4 5 7 8 5 5 5 2 1 2 2 3 3 3 5 8 6 5 6 6 8 9 5 3 6 12 12 9 7 5 5 8 8 8 8 9 10 12 11
1 3 5 4 11 21 11 4 5 4 4 4 3 4 3 1 3 5 4 3 3 3 3 2 4 6 6 6 7 6 4 5 7 9 8 6 7 6 3 8 6 3 1 1 3 2 1 1 3 5 4 5 8 8 3 2 1 4 4 4 5 5 5 7 7 5 5 5 5 8 8 3 2 5 10 12 14 12 8 7 8 7 8 12 13 13 13 12
2 3 5 7 5 7 4 5 6 6 7 5 6 8 6 3 4 7 6 4 3 3 3 3 3 6 5 4 4 5 5 5 6 8 7 5 5 2 8 9 5 2 2 2 2 3 2 2 3 4 3 4 5 6 4 2 1 3 4 6 7 9 10 10 7 6 5 6 8 9 7 4 2 4 7 9 13 16 13 11 12 10 10 11 12 12 12 13
2 2 3 7 7 3 2 3 2 4 7 9 10 10 9 6 5 7 7 5 4 4 3 2 1 1 2 2 2 2 3 4 4 4 2 2 4 2 8 8 6 3 1 4 4 2 2 2 4 4 6 7 6 5 3 3 1 1 2 5 6 8 11 10 7 7 7 8 10 10 8 7 5 5 8 10 13 15 12 13 12 10 10 10 10 10 11 12
1 1 2 4 3 0 2 1 1 3 4 6 8 9 12 13 7 4 5 5 6 6 5 4 2 1 1 3 3 5 5 6 5 4 3 3 3 2 5 5 6 4 2 6 7 2 1 2 5 8 10 10 10 9 6 7 7 7 8 8 7 7 9 8 7 8 9 10 10 10 11 11 9 9 9 8 9 11 10 10 9 10 10 10 9 9 10 10
0 1 1 1 2 1 2 1 1 3 2 2 3 4 8 11 7 3 5 4 4 3 3 5 3 3 4 4 4 5 5 5 6 5 4 3 2 4 5 1 4 5 4 3 5 2 1 3 5 9 12 11 11 13 11 10 11 11 13 13 13 13 12 11 12 12 11 11 11 10 12 14 11 6 6 8 9 9 9 8 8 8 8 8 8 9 11 11
0 1 1 2 2 1 2 2 3 3 4 4 3 3 4 5 4 3 1 1 2 1 1 2 0 1 1 1 1 3 4 6 5 3 1 2 2 4 6 2 1 4 5 2 3 2 1 4 5 9 12 9 9 11 11 10 11 10 11 13 15 16 16 16 17 17 14 14 14 13 17 18 12 5 6 7 6 7 7 7 6 5 6 7 8 9 11 11
1 1 3 2 1 1 2 3 4 4 5 5 3 4 6 7 8 5 1 2 4 2 2 3 1 4 3 2 0 2 4 4 4 1 1 1 1 1 3 4 1 3 6 5 3 0 2 4 5 6 8 9 11 13 12 12 12 11 11 12 13 15 17 18 18 17 17 19 18 17 20 18 6 3 4 5 4 4 4 5 5 6 7 8 8 9 9 9
0 0 2 2 1 2 2 2 2 3 3 3 4 6 6 7 10 7 2 3 7 5 3 3 1 2 1 2 1 2 3 1 3 3 1 1 1 0 0 2 2 4 6 5 3 2 3 4 6 7 7 11 14 14 13 12 12 13 13 13 14 17 19 18 16 15 17 19 17 16 18 12 1 4 4 5 4 4 5 6 6 6 7 7 8 8 8 8
1 1 1 2 2 2 0 1 1 1 3 3 3 4 4 4 5 4 2 2 3 2 0 2 3 2 1 1 1 4 3 0 2 3 1 0 3 2 1 2 3 6 6 4 2 2 3 3 5 6 7 9 11 14 15 13 12 14 15 16 19 19 17 16 16 14 13 12 13 13 11 5 2 3 4 4 5 6 7 7 6 5 5 6 7 7 7 6
2 2 1 1 3 2 1 1 1 2 3 2 1 2 2 1 2 3 2 1 4 5 5 6 4 3 1 3 3 3 2 1 2 3 2 4 6 6 5 7 7 6 5 4 2 3 4 4 4 6 7 8 11 13 12 10 10 12 12 12 16 16 14 14 12 8 6 4 5 6 3 1 3 4 4 5 7 7 7 6 6 4 4 5 6 6 6 5
Wind_Direction
7 7 5 6 6 6 6 4 5 4 4 1 360 358 354 352 349 348 345 345 345 345 347 344 346 348 347 351 350 344 334 321 309 285 257 269 284 256 245 246 217 197 199 191 179 168 146 136 149 135 125 98 19 26 65 24 99 75 95 136 224 198 204 192 191 201 192 253 268 290 78 202 286 291 272 341 274 259 278 276 271 279 259 238 248 285 296 180
5 4 2 2 1 2 0 360 0 358 359 356 356 353 350 348 343 342 340 339 338 338 340 339 341 340 342 346 345 345 335 323 315 285 251 221 330 277 246 231 218 202 194 189 192 176 150 181 170 118 84 85 344 16 19 313 123 118 121 166 229 203 213 196 187 197 202 232 257 282 282 216 249 263 357 276 272 292 289 279 275 275 269 261 253 244 216 179
2 1 359 358 357 358 356 356 354 352 352 351 350 348 346 342 339 336 333 332 331 331 332 331 334 335 338 340 343 346 334 326 319 271 186 92 10 319 248 217 211 202 197 200 205 192 184 193 166 117 58 73 316 21 55 327 181 174 134 203 242 217 231 228 204 210 218 237 281 283 275 212 241 242 147 253 280 283 253 260 259 257 260 259 243 194 191 182
1 358 356 355 354 354 352 352 349 348 347 346 345 343 341 338 335 331 328 326 324 324 323 324 327 329 332 336 343 342 338 339 307 197 160 33 353 348 245 201 200 199 198 202 196 201 203 154 143 98 75 154 321 10 160 221 204 177 155 207 234 199 236 234 212 225 230 229 246 267 312 283 259 201 197 239 298 281 243 235 236 242 246 250 242 191 187 188
360 357 357 354 354 352 351 350 346 346 344 343 342 339 337 333 330 326 323 319 317 317 317 318 319 324 328 332 338 343 360 11 288 189 179 317 336 333 240 187 194 194 194 201 178 162 146 123 104 59 80 170 317 43 236 222 145 172 211 227 224 163 237 234 201 227 218 177 231 264 295 282 277 193 210 193 235 262 249 216 219 234 240 243 237 196 188 197
1 359 360 355 354 352 350 349 345 344 342 342 340 338 336 330 327 322 318 314 311 311 310 310 312 316 321 326 326 335 35 339 273 246 277 304 312 304 227 191 192 191 195 199 174 155 138 102 92 101 103 122 199 194 246 229 137 234 247 247 238 192 230 244 192 207 174 174 236 241 276 299 300 277 218 175 219 251 253 216 212 232 235 237 217 174 190 205
4 4 3 357 355 351 349 346 343 341 340 340 338 337 334 330 328 321 317 312 307 306 305 305 308 308 313 322 315 329 102 239 273 278 286 290 284 276 221 200 189 194 199 189 165 153 125 104 155 160 117 303 219 213 237 219 139 245 258 254 245 211 226 249 241 211 181 228 243 243 323 292 262 274 202 180 229 253 258 240 230 247 239 225 200 189 206 208
5 5 3 359 355 350 349 344 342 340 337 336 334 334 331 329 326 320 317 311 308 307 305 304 305 306 310 319 323 331 178 252 275 277 276 272 265 254 220 203 193 199 200 197 182 159 134 142 187 163 135 241 201 191 202 148 163 225 235 243 243 222 234 256 268 257 243 249 250 263 288 267 253 264 274 244 250 258 261 258 244 252 250 225 222 219 216 215
4 3 3 359 355 351 349 345 342 339 336 334 332 331 329 327 323 318 314 309 307 306 306 307 305 306 306 324 62 319 260 262 278 266 256 258 258 244 222 210 203 203 199 206 195 167 163 182 205 193 195 219 172 190 187 179 242 219 222 247 265 268 268 274 277 256 244 243 210 194 257 265 268 278 266 247 249 260 265 266 254 247 249 232 231 228 216 220
0 3 5 0 358 354 351 348 344 340 336 333 331 330 327 324 320 316 312 306 302 301 304 304 303 304 298 343 70 280 266 266 258 236 251 261 255 236 224 226 215 208 197 198 192 177 181 196 191 172 175 162 167 202 164 177 221 198 214 266 261 271 282 260 261 254 241 249 202 192 249 265 283 25 265 239 236 260 275 267 266 239 243 236 234 235 221 223
1 3 3 1 359 355 352 349 345 341 336 334 332 329 324 321 317 312 308 302 298 297 298 298 301 296 280 139 183 253 263 253 241 245 259 261 253 241 238 241 226 212 198 183 198 198 201 195 154 123 171 188 179 204 215 205 203 179 235 299 279 287 293 249 247 253 217 256 207 188 246 275 309 185 249 255 244 249 269 274 278 244 246 245 239 241 230 228
1 2 1 1 358 355 354 349 345 342 338 336 332 328 323 318 314 308 301 295 292 292 290 290 292 279 263 169 226 247 258 256 253 257 260 258 252 245 243 239 232 222 209 196 213 214 214 203 153 158 215 177 163 258 237 221 100 302 53 317 292 320 305 265 254 243 186 223 181 161 255 284 263 240 245 259 268 103 266 278 279 260 254 252 246 243 238 239
360 360 360 360 358 357 355 351 348 344 341 338 334 331 324 316 311 304 296 289 284 285 285 284 275 242 177 257 249 253 260 260 259 259 257 255 249 245 238 229 227 226 220 216 233 222 215 210 175 183 204 154 232 248 172 59 32 295 57 349 296 332 305 268 216 69 170 199 159 145 277 247 239 257 258 262 252 230 262 268 271 271 266 258 252 247 246 246
358 359 360 359 359 358 356 353 349 346 342 340 338 334 325 316 309 302 296 287 281 280 277 270 238 179 146 257 266 273 267 262 259 254 251 248 239 234 232 220 216 213 216 221 225 186 200 203 167 138 215 165 248 288 341 4 9 305 302 230 302 300 284 288 95 87 262 232 154 152 263 245 243 266 269 270 185 208 240 259 266 271 271 269 260 251 255 251
355 357 358 356 356 356 355 352 348 346 343 342 341 335 325 317 310 307 302 289 282 275 260 227 181 149 97 274 270 281 273 265 262 257 253 246 230 219 214 197 195 194 196 200 187 151 165 172 143 130 258 267 316 302 315 342 6 359 292 285 298 213 268 304 295 208 232 282 129 162 242 262 255 260 269 287 170 201 233 256 265 271 272 272 268 256 257 260
346 349 351 351 353 354 353 350 347 346 344 343 342 336 327 319 317 319 312 300 283 239 187 178 171 145 83 272 278 286 270 259 261 262 254 240 229 216 175 159 150 152 164 169 161 152 137 128 118 154 217 294 229 223 348 360 334 335 223 255 265 247 280 317 300 245 204 210 220 213 237 274 262 254 274 295 222 204 229 260 269 271 270 266 269 263 258 266
338 340 343 348 349 350 351 348 347 346 345 346 344 338 332 327 333 339 339 41 114 140 120 143 162 141 268 261 285 284 260 249 254 260 246 229 219 195 153 129 114 123 122 117 140 140 106 94 42 347 38 307 159 119 9 312 276 280 224 239 246 251 276 310 298 295 162 166 218 239 242 256 260 265 292 297 281 262 251 262 268 268 270 267 266 266 263 262
331 333 339 344 346 349 351 348 347 348 347 349 348 340 336 354 12 43 79 103 109 110 86 93 138 130 272 256 266 269 266 248 240 240 224 199 184 177 154 125 119 116 94 55 120 140 1 28 80 33 348 285 177 132 204 232 229 236 234 251 276 259 257 261 269 293 343 233 225 255 254 255 265 273 281 279 280 285 275 264 264 264 265 266 266 265 262 260
324 327 335 341 343 346 348 347 347 348 347 351 353 343 342 14 32 85 82 89 106 114 58 201 165 153 263 258 262 274 295 241 219 189 162 152 159 156 130 112 106 105 102 46 259 195 124 56 77 113 219 235 220 182 206 227 227 233 234 248 276 276 254 244 253 262 298 287 264 261 264 263 269 272 271 268 265 276 280 276 269 264 260 260 263 259 258 259
322 326 333 339 341 342 347 347 345 349 351 355 358 356 13 10 4 31 357 340 217 234 258 220 206 220 273 274 264 259 266 229 229 171 152 153 150 134 102 86 77 78 142 162 208 213 137 161 170 192 216 224 221 202 217 238 264 288 270 257 260 269 269 258 268 272 260 287 264 250 268 271 269 268 268 272 266 261 274 278 273 269 266 257 255 258 258 257
326 328 333 339 339 340 346 346 344 350 354 0 12 28 89 36 7 315 320 295 260 252 254 241 223 238 257 257 220 136 354 276 247 141 153 158 145 140 132 109 112 159 203 157 165 32 137 195 213 217 223 230 228 216 232 259 299 285 261 273 268 254 268 266 271 279 277 273 264 252 273 275 269 268 264 267 268 256 255 267 275 277 273 263 256 259 260 259
323 320 326 334 341 342 345 346 344 347 353 6 31 63 130 142 241 264 293 297 281 254 242 250 242 251 254 256 262 108 27 288 272 190 157 147 138 180 198 113 150 199 179 134 160 260 217 220 232 231 236 285 323 129 171 237 250 254 252 278 276 255 277 274 258 280 312 218 276 286 280 277 270 263 253 246 254 254 248 252 267 273 274 270 260 257 261 267
310 307 317 325 337 339 342 345 339 343 355 11 42 73 111 322 255 247 189 270 289 268 235 243 236 242 254 267 260 193 221 245 257 254 170 144 122 196 149 130 160 156 155 182 203 222 231 234 236 237 235 255 269 108 91 276 249 230 222 255 270 257 272 270 256 315 335 239 275 294 285 281 268 254 247 242 245 255 256 247 257 266 265 261 259 262 268 269
295 294 305 311 324 330 336 339 333 345 357 8 42 35 14 342 246 189 183 250 281 281 249 223 211 224 239 271 217 178 212 223 229 252 175 153 138 163 155 149 143 147 195 205 212 225 240 238 221 222 206 208 242 253 223 273 265 227 207 224 256 253 248 255 282 338 329 288 300 313 299 288 242 218 238 246 244 252 257 251 256 263 257 256 264 271 268 264
284 286 292 297 306 314 325 332 333 349 347 349 26 7 359 337 275 166 41 324 289 287 278 215 190 234 214 154 157 173 177 211 240 242 179 166 152 141 186 161 143 199 210 209 222 241 252 241 147 146 194 187 210 242 221 224 255 260 214 214 240 253 257 264 290 339 341 307 336 14 320 298 186 151 227 257 245 243 247 244 245 251 256 263 275 268 266 268
280 280 285 291 295 304 320 330 330 338 338 333 358 352 346 328 300 204 79 16 296 280 304 230 178 194 188 122 155 164 127 252 285 340 168 187 169 135 155 194 171 215 201 194 218 245 253 244 182 197 202 166 178 244 227 197 241 280 235 212 232 250 262 266 279 311 292 262 294 67 17 287 290 170 227 240 218 239 244 237 243 247 259 273 272 269 274 277
282 282 280 281 288 300 310 305 311 327 332 318 342 345 340 333 316 286 28 1 298 247 117 292 335 92 188 124 86 134 155 280 334 39 85 327 261 90 140 211 224 236 174 142 286 243 207 224 235 200 166 147 179 246 219 170 195 269 238 195 211 230 245 246 240 238 242 279 311 58 131 276 285 259 224 220 196 247 257 245 248 251 262 271 269 274 281 279
280 283 279 274 275 279 276 274 296 318 304 306 333 337 336 329 307 21 48 315 290 112 98 276 146 94 317 58 69 98 212 295 44 310 314 64 237 71 229 227 192 209 179 146 247 248 154 193 204 163 127 159 202 219 171 151 186 249 182 144 171 201 225 191 179 211 272 343 309 245 133 252 277 281 28 174 184 241 253 249 260 269 270 271 271 275 279 281
280 280 278 268 260 260 262 265 269 279 288 305 329 327 332 320 307 59 81 256 290 73 70 61 134 2 357 58 42 47 324 331 110 277 328 80 230 82 177 218 167 205 236 178 234 260 170 210 189 152 149 208 213 192 161 163 195 223 124 98 74 74 65 99 154 149 67 313 255 202 166 225 278 282 72 65 194 233 252 257 272 281 272 269 274 277 277 281
288 282 275 257 246 245 247 260 262 265 275 285 313 323 331 327 29 69 231 241 357 308 222 101 193 313 51 76 338 339 287 291 348 347 3 70 338 30 144 203 118 161 264 270 255 255 235 174 151 161 184 198 171 119 168 175 178 143 109 62 32 30 32 55 70 87 73 282 239 190 187 194 277 280 134 167 213 211 254 278 277 275 272 270 272 275 278 285
290 290 279 253 244 236 224 268 282 266 257 264 301 322 331 353 74 165 239 241 42 286 352 48 322 32 71 109 300 319 190 297 333 80 4 77 27 25 40 260 77 71 325 302 274 271 258 171 204 232 197 142 126 107 349 81 127 124 104 65 11 333 7 27 357 52 158 265 242 192 186 186 237 259 182 257 250 207 223 263 273 274 276 277 275 276 286 307
281 282 273 245 239 235 228 258 352 72 197 246 293 330 27 9 274 211 243 355 352 276 109 146 305 69 80 77 275 251 169 283 281 138 168 159 147 190 202 200 175 334 310 253 276 311 275 211 215 257 204 157 145 167 338 17 111 129 123 127 338 315 340 341 317 102 210 259 259 185 165 207 246 260 283 269 268 255 231 225 245 259 272 279 284 295 310 330
276 275 269 248 233 232 234 239 236 119 102 144 281 31 79 230 254 196 187 270 250 270 83 113 12 122 117 23 281 237 178 230 200 161 175 147 171 247 252 222 177 221 266 223 323 312 279 261 186 156 256 184 154 177 234 244 170 161 159 162 167 195 254 260 253 252 258 268 286 177 157 251 274 277 244 241 258 273 253 222 235 252 267 279 295 314 320 322
277 275 270 259 239 232 231 234 237 233 219 160 107 66 136 234 249 120 166 232 249 323 348 116 66 29 158 231 247 208 232 255 161 140 193 123 119 269 267 247 196 188 245 254 309 236 254 285 208 173 234 176 177 203 201 144 160 185 167 146 171 185 205 233 223 250 269 275 312 246 181 224 271 272 231 233 260 289 283 263 267 265 269 292 313 314 313 312
281 276 273 265 248 236 227 224 231 228 201 149 114 167 218 237 253 246 226 236 277 302 304 5 37 317 288 250 256 225 224 251 98 114 187 170 191 221 223 220 197 174 164 220 250 171 224 268 250 210 140 158 184 222 147 112 159 221 130 116 217 199 186 244 242 231 255 287 277 242 225 224 236 262 260 257 270 281 292 297 285 278 291 336 319 301 306 308
289 284 276 260 247 240 228 218 217 212 187 144 172 214 228 234 212 209 219 198 206 220 312 326 289 263 281 271 273 273 214 228 236 144 218 203 212 220 217 216 193 179 174 191 227 202 232 264 267 52 177 181 189 194 134 164 203 170 124 190 234 167 147 245 270 248 236 263 249 239 260 270 280 284 278 301 315 303 303 308 290 279 292 335 285 281 295 302
305 301 283 259 252 243 231 218 207 200 180 146 214 222 233 232 197 200 199 151 178 139 117 275 238 213 256 266 268 289 343 242 219 196 229 242 243 212 208 243 201 187 196 204 221 240 247 263 258 229 243 237 165 116 313 249 157 135 180 222 223 106 135 185 267 281 244 250 245 235 256 272 285 280 286 7 329 307 296 314 329 296 293 279 261 268 288 305
318 312 289 271 261 244 230 216 196 186 160 165 230 234 232 231 208 195 181 172 251 311 162 236 245 234 238 247 263 211 194 229 185 175 217 240 241 188 171 245 221 199 213 219 239 279 244 255 276 262 237 252 67 67 293 291 172 163 213 242 124 198 236 189 190 237 243 251 248 222 245 261 259 260 273 288 291 291 294 316 339 320 316 320 298 294 303 298
317 313 283 280 277 233 218 203 183 172 152 198 227 237 228 237 236 205 201 225 258 263 243 236 241 268 268 254 271 293 209 212 171 197 219 224 239 210 154 241 246 231 228 202 208 260 131 239 273 273 167 81 40 139 220 241 289 318 273 313 21 186 203 195 196 205 238 254 257 232 233 241 242 259 274 267 260 275 287 296 306 308 306 303 306 316 318 309
304 297 261 316 350 194 190 183 170 173 211 213 226 234 235 251 251 232 228 228 221 233 241 229 216 241 263 261 267 275 235 210 204 216 224 233 259 272 265 222 203 235 201 171 213 232 118 240 249 226 143 278 253 217 204 202 208 191 208 243 247 225 222 257 240 176 222 257 263 252 243 236 237 266 271 253 242 254 247 255 295 310 316 321 337 342 338 347
291 244 259 334 16 158 163 166 180 199 210 223 237 241 248 261 261 277 286 191 210 254 260 217 213 237 259 263 263 257 232 221 221 220 233 241 251 266 268 191 169 208 77 108 237 243 208 237 239 211 224 236 234 213 185 184 175 160 179 208 220 219 234 273 255 219 216 242 247 253 257 245 243 294 288 266 236 242 236 261 309 320 325 329 342 349 358 12
226 207 280 2 144 158 156 173 205 202 215 222 236 241 246 260 256 267 279 200 198 244 303 246 229 242 255 257 257 252 245 235 220 228 243 232 230 241 266 54 62 48 64 152 238 260 118 207 267 249 237 247 260 248 185 178 181 178 207 229 237 208 177 223 246 242 234 245 251 260 264 248 233 289 297 297 297 288 269 280 303 312 320 337 356 7 16 23
227 245 300 320 168 164 163 206 204 212 235 241 280 262 233 244 252 253 255 227 206 218 244 240 231 239 241 247 252 247 242 228 217 234 247 243 243 251 16 41 45 38 1 265 280 317 58 83 270 261 264 291 294 287 264 173 248 272 255 237 236 241 238 238 253 275 274 265 267 268 264 244 227 268 281 293 299 298 297 313 330 344 358 4 11 16 18 15
292 283 282 286 235 181 184 208 206 219 229 248 268 256 251 245 237 248 248 225 190 203 231 230 234 244 239 242 251 240 239 240 237 245 246 249 262 340 43 34 39 49 336 321 313 293 292 276 270 280 288 296 297 291 307 19 186 232 247 238 232 242 254 261 267 277 271 239 239 257 261 241 247 281 285 294 296 297 315 1 22 29 28 17 12 13 10 10
318 297 254 281 299 301 219 213 223 226 224 235 243 247 257 254 231 237 243 239 211 197 235 256 233 281 287 286 299 270 235 230 254 277 268 277 280 7 31 20 44 71 14 20 14 272 248 261 256 273 272 267 274 271 288 335 299 223 270 253 242 238 240 252 262 257 253 233 228 246 263 259 260 278 279 283 292 306 341 26 32 26 26 20 13 11 8 9
328 301 276 294 314 306 220 266 311 242 228 233 237 236 239 243 246 212 202 237 243 221 233 250 210 124 273 253 257 268 250 222 223 251 267 279 275 329 359 15 50 53 64 37 15 335 215 247 231 238 253 262 276 279 293 309 290 284 288 275 271 266 251 255 260 252 262 264 250 251 267 275 274 275 284 305 330 344 12 33 26 20 21 16 11 10 11 12
210 250 227 298 327 281 250 294 297 261 274 278 263 249 233 237 253 236 196 228 258 232 240 245 215 202 226 232 239 255 259 234 222 237 266 284 275 304 323 22 67 29 43 31 356 14 168 275 249 251 261 268 282 291 302 304 288 285 291 286 283 280 270 263 259 258 268 272 265 265 274 277 277 294 347 10 4 1 16 23 23 25 17 11 13 11 12 13
203 297 286 288 302 260 246 301 346 308 292 294 297 303 271 247 251 253 215 304 317 328 272 262 42 41 319 289 237 240 252 250 242 240 287 355 345 328 332 341 65 32 45 24 345 71 174 274 266 268 278 284 295 301 303 298 290 288 288 286 286 285 279 271 267 270 272 270 272 279 278 276 283 329 23 28 5 356 8 7 8 20 12 13 18 14 15 12
33 307 303 324 306 277 295 327 359 345 295 286 286 269 267 265 264 266 28 353 308 311 294 275 46 51 17 6 58 228 242 254 267 286 93 46 335 314 325 317 310 40 32 7 342 207 217 262 268 276 292 298 293 290 287 285 286 285 279 278 280 279 276 274 276 279 275 271 274 278 276 278 295 22 5 6 360 342 353 351 355 15 14 12 15 14 15 8
82 228 313 359 307 264 317 319 325 332 295 263 251 258 262 264 271 279 297 265 267 274 278 259 126 76 349 357 46 245 253 259 264 273 68 63 314 311 260 265 285 353 350 342 320 265 245 273 297 305 302 292 286 284 281 279 280 282 282 278 274 271 270 273 276 274 270 271 272 269 270 275 44 73 341 337 342 336 356 358 356 6 5 3 9 11 7 359
232 323 328 351 299 250 221 329 270 260 264 237 226 261 269 255 274 304 307 243 257 275 37 86 67 52 269 256 279 269 276 235 209 248 336 197 259 292 306 267 296 325 317 287 254 270 268 286 309 302 284 275 278 281 282 286 285 278 273 267 264 265 266 267 265 266 270 278 282 277 273 280 28 26 339 336 340 349 358 349 341 347 353 356 1 357 350 346
220 305 252 179 283 264 178 325 257 216 241 244 237 296 290 290 13 356 297 91 74 82 87 76 52 31 326 285 301 321 330 326 249 263 261 236 249 258 251 250 258 265 270 272 270 248 244 258 278 275 273 273 270 274 288 300 289 271 259 254 255 259 264 266 269 289 315 307 292 291 278 252 310 323 342 346 346 349 345 331 323 321 330 345 348 340 328 319
Height
830 830 829 828 828 828 827 827 826 825 825 824 823 823 822 821 820 820 819 818 817 816 816 815 814 813 812 811 810 809 808 807 806 806 805 802 801 801 802 802 803 803 804 805 805 806 807 808 808 809 809 811 815 815 816 816 817 820 827 834 834 836 833 824 821 819 814 809 805 803 806 808 804 800 798 798 798 797 797 795 793 791 787 785 784 785 785 785
830 829 829 828 828 827 827 827 826 825 825 824 823 822 821 821 820 819 818 818 817 816 815 814 814 813 811 811 810 809 807 806 805 804 802 801 801 800 801 801 802 803 804 804 804 805 806 808 808 809 810 813 816 816 816 817 817 821 831 835 830 827 821 814 811 810 811 807 803 803 805 807 802 799 799 797 797 797 797 793 792 790 785 783 783 784 785 785
829 829 828 828 827 827 826 826 825 825 824 823 823 822 821 820 819 819 818 817 816 815 815 814 813 812 811 811 809 809 807 805 804 802 800 800 800 800 800 801 802 803 803 804 804 805 805 806 807 809 812 815 818 818 817 818 818 821 828 831 822 816 813 812 810 807 806 804 804 804 804 806 800 799 799 797 796 796 796 791 789 788 783 779 780 783 784 784
829 828 828 827 827 826 826 825 825 824 824 823 822 821 821 820 819 818 817 817 816 815 814 813 813 811 811 809 809 809 805 806 804 799 799 799 799 799 799 800 801 802 803 804 804 805 806 806 807 810 813 816 820 820 819 817 818 821 824 820 813 814 812 807 806 804 805 808 807 804 805 804 798 799 798 795 798 794 789 785 784 782 778 776 778 781 782 782
829 828 828 827 826 826 825 825 824 823 823 822 821 821 820 819 819 818 817 816 815 815 813 813 812 811 811 809 810 807 808 813 805 797 799 799 799 799 799 799 800 801 803 803 804 805 805 806 808 811 814 817 820 820 817 815 817 820 818 811 809 815 810 801 803 803 805 808 807 805 804 799 795 797 794 795 799 788 777 778 778 775 774 774 775 778 781 781
829 828 828 827 826 826 825 824 823 823 822 821 821 820 819 818 817 817 816 815 815 814 813 813 811 811 810 809 810 807 812 817 803 796 799 798 799 799 798 799 800 801 802 803 804 805 806 808 809 813 816 817 819 817 815 815 817 816 812 809 808 811 807 800 801 802 803 805 803 802 801 798 796 793 789 792 791 776 769 772 773 771 771 772 772 775 777 778
828 828 827 827 826 825 824 824 823 822 821 821 820 819 819 817 817 816 815 814 813 813 812 812 811 811 810 809 809 808 813 810 798 797 799 797 798 798 798 798 799 800 801 802 803 805 807 809 810 813 816 816 817 815 814 815 817 816 812 808 806 807 806 800 800 802 803 802 799 801 801 797 794 792 789 787 781 771 767 769 770 769 769 771 771 772 772 772
828 828 827 826 826 825 824 823 822 822 820 820 819 818 818 816 816 815 814 813 812 812 811 811 810 809 809 809 809 810 811 804 796 797 797 797 797 796 798 798 799 800 800 801 802 804 807 809 810 813 814 814 815 814 814 815 816 817 811 806 805 805 802 799 801 803 803 801 799 802 800 790 788 792 787 782 776 768 764 766 767 767 767 770 768 768 768 769
828 827 827 826 825 824 824 823 822 821 820 819 818 817 816 815 815 813 813 812 811 811 810 810 810 808 809 808 810 812 806 797 795 796 795 796 796 796 797 797 798 798 799 801 802 804 806 808 808 810 810 811 814 813 813 815 813 810 806 804 804 803 800 799 799 799 801 799 798 801 796 786 785 789 781 774 769 762 762 764 764 766 765 766 765 764 765 765
828 827 826 826 825 824 823 822 821 820 819 818 817 816 815 814 813 812 811 810 810 809 809 809 808 808 809 807 812 811 798 793 795 794 795 795 794 795 795 796 797 797 798 800 801 802 803 804 805 806 808 811 813 813 814 813 810 806 806 805 803 803 801 799 797 796 799 796 794 796 792 783 785 790 778 764 761 759 762 763 762 764 762 761 762 761 762 762
827 827 826 825 825 824 823 822 821 819 818 817 816 815 814 813 812 811 810 809 808 808 808 808 807 808 807 807 811 805 793 792 794 793 794 794 793 794 794 795 795 796 797 798 799 800 800 801 803 805 808 810 811 813 813 808 807 806 807 805 802 802 800 797 797 795 797 792 787 791 791 786 788 790 774 757 758 761 762 760 760 762 760 759 760 759 760 759
827 827 826 825 825 824 822 822 820 819 818 816 815 814 812 811 810 809 808 807 806 806 806 807 807 806 807 808 805 796 790 792 792 792 793 792 792 793 793 794 794 795 796 797 799 798 800 801 802 805 807 808 810 812 809 805 807 806 807 808 802 802 797 789 789 791 792 788 784 789 794 791 785 776 761 753 758 762 762 760 757 758 757 757 757 757 757 755
828 827 826 825 824 823 822 821 820 819 817 815 814 812 811 809 808 806 805 805 804 805 805 805 805 805 808 805 794 789 790 790 790 791 791 791 791 791 792 793 794 795 796 797 798 798 800 800 801 804 805 807 809 807 805 806 808 805 808 810 805 807 798 782 784 789 789 787 783 786 792 785 774 763 752 753 759 761 761 759 755 754 754 754 754 754 753 751
828 827 826 825 824 823 822 821 819 818 816 815 812 811 809 807 805 804 802 802 802 803 803 804 804 805 807 800 788 787 789 788 788 788 789 789 790 790 791 792 793 795 796 797 798 798 799 800 801 804 805 806 806 804 806 809 808 807 810 810 811 814 797 779 785 791 788 787 782 784 790 780 768 759 749 750 757 758 758 756 754 752 751 751 750 751 750 747
827 827 826 825 824 823 822 820 819 817 815 813 811 809 807 804 802 801 800 799 800 801 801 803 803 804 807 798 787 787 787 786 787 786 787 787 788 790 790 792 793 794 796 797 798 798 799 800 802 804 805 805 804 806 810 811 808 811 812 809 812 813 800 785 784 785 783 784 785 785 785 778 770 759 749 751 756 755 756 754 752 751 750 749 747 747 746 742
827 827 825 825 824 822 822 820 818 816 814 812 810 808 804 802 801 799 798 797 798 800 801 803 802 804 807 797 787 786 785 784 785 784 785 786 787 789 790 792 794 795 796 797 797 798 798 800 803 806 806 805 806 809 814 817 814 814 816 811 808 808 804 795 780 775 779 782 784 783 778 772 766 756 749 752 755 755 755 753 751 749 748 746 744 743 742 738
827 826 825 825 823 822 821 819 818 816 813 811 808 805 803 802 800 798 798 797 798 799 801 802 802 805 802 791 787 785 782 783 783 783 784 784 787 788 790 792 794 795 796 797 797 798 799 801 806 807 806 808 810 811 818 825 819 813 815 813 811 808 806 801 783 772 779 782 780 781 778 769 760 755 754 752 752 755 756 753 750 747 745 743 741 740 738 735
827 826 825 824 823 822 821 819 818 815 813 810 807 804 803 802 800 799 799 798 799 800 802 802 803 808 799 787 786 783 780 782 782 782 783 784 786 788 789 791 794 795 796 799 798 800 802 805 809 808 808 810 810 814 819 818 809 803 805 806 808 808 806 806 793 775 776 780 780 783 780 770 762 760 759 755 752 752 750 749 746 743 742 739 738 737 732 728
826 826 825 824 823 822 820 819 817 815 812 809 807 804 802 802 801 800 800 800 801 799 800 800 800 802 795 785 783 781 780 782 781 782 782 783 786 787 789 790 793 795 798 802 801 801 803 807 811 812 810 805 802 808 807 798 795 797 800 802 802 803 801 799 790 778 778 782 783 783 775 765 763 760 757 754 753 750 743 740 739 737 737 736 735 732 726 722
826 825 825 824 823 821 820 819 817 816 813 809 806 803 803 807 804 802 803 801 800 797 795 796 793 791 788 783 781 781 781 781 781 781 782 783 784 786 789 791 794 797 799 801 801 803 804 807 811 808 800 794 793 799 798 793 796 802 804 804 803 804 798 790 784 778 781 784 778 774 766 759 760 757 754 750 749 750 744 735 731 730 731 731 730 724 719 715
826 825 824 823 822 821 820 819 818 816 814 811 807 806 811 816 813 811 809 802 795 794 793 791 789 787 782 779 780 780 781 780 780 781 782 782 783 786 789 792 796 799 801 801 802 804 806 809 808 797 788 788 793 796 798 800 803 804 805 806 806 807 797 786 782 776 780 785 775 771 765 756 757 755 751 750 746 745 740 733 727 724 724 723 722 718 711 706
826 824 824 823 821 820 820 819 818 817 816 813 810 811 816 818 817 817 816 808 796 791 791 787 787 786 778 777 780 781 783 783 780 780 781 782 784 786 788 792 796 798 802 803 802 804 808 809 803 792 790 794 796 798 801 803 805 805 808 810 807 805 794 782 781 778 783 785 775 773 765 750 752 751 745 744 739 733 731 730 726 721 720 718 713 710 705 701
825 824 823 822 821 821 819 819 818 817 816 814 813 815 816 816 816 816 817 814 801 788 785 784 784 783 778 777 779 781 785 785 781 780 780 781 785 787 788 792 797 799 801 799 797 800 804 801 794 791 795 799 798 800 803 803 804 805 807 809 803 799 794 785 781 780 785 785 777 777 765 743 741 742 737 736 731 727 726 726 724 719 716 711 705 703 703 701
823 823 823 821 821 820 819 819 818 817 817 816 815 815 815 815 815 816 816 812 802 789 781 780 781 779 777 777 777 779 783 783 781 779 778 780 784 787 787 790 796 800 799 795 793 793 791 788 788 791 796 799 801 802 804 804 802 799 803 806 797 791 792 788 785 784 785 782 779 778 757 727 724 732 729 727 729 729 726 724 723 718 708 702 703 702 701 699
822 822 821 821 821 820 820 819 818 818 818 817 817 816 815 815 814 815 815 810 801 789 779 777 779 777 775 775 776 778 780 781 779 778 777 778 781 785 787 789 792 794 794 795 796 794 788 785 788 791 794 800 803 802 803 803 798 795 797 797 788 786 789 789 789 793 791 783 783 785 763 728 720 730 725 718 725 726 723 724 719 710 701 699 704 701 696 695
820 820 820 820 820 819 820 818 818 819 817 818 818 816 816 815 814 815 815 812 799 782 776 777 778 775 773 776 777 777 779 780 779 778 778 778 778 780 786 789 788 789 791 794 797 795 789 786 786 788 792 797 804 803 798 798 800 796 791 786 784 789 792 791 793 796 793 784 786 789 779 753 727 724 722 716 721 718 714 717 710 702 701 702 703 697 695 694
818 819 819 820 819 819 819 818 819 818 818 819 816 817 816 813 816 814 812 815 798 775 774 778 777 775 774 777 777 778 781 781 779 779 778 779 779 779 784 787 788 789 790 793 794 789 784 785 788 789 793 798 802 799 790 795 801 795 789 784 783 787 790 792 795 798 794 789 791 787 785 780 746 721 721 718 720 720 712 710 702 699 703 701 700 697 694 692
817 817 817 818 818 818 818 818 818 817 818 818 816 817 815 813 816 811 815 822 796 768 772 776 774 773 773 777 778 778 782 781 779 780 779 780 779 780 784 785 786 787 787 790 789 783 780 782 784 788 795 798 794 787 783 792 793 787 790 791 788 790 790 793 794 797 801 796 794 788 785 787 753 720 724 726 723 720 711 706 703 702 703 699 697 695 693 690
816 816 816 817 817 817 817 817 817 817 818 817 817 816 814 815 814 811 825 826 787 765 773 774 772 775 775 777 779 779 781 780 779 780 779 780 779 780 784 784 785 785 785 787 783 780 780 781 782 785 788 786 781 781 782 784 784 786 792 792 792 795 794 799 796 794 802 796 789 788 784 779 746 711 721 731 723 715 708 706 706 706 704 700 697 695 692 690
815 815 815 815 815 816 816 815 815 816 817 817 817 816 814 815 814 820 832 816 783 773 775 771 774 778 777 778 780 781 781 779 781 781 780 782 780 779 783 784 784 785 786 788 784 780 781 785 787 781 777 774 775 785 789 785 784 788 790 786 789 794 793 801 800 794 800 790 777 775 773 775 752 716 716 724 716 712 710 706 700 700 700 697 695 694 691 690
813 813 814 814 815 816 815 815 815 815 816 817 817 816 816 815 818 828 823 797 782 780 774 775 780 780 779 781 780 780 781 779 781 782 780 783 783 783 785 784 785 787 787 786 784 781 781 785 783 774 771 774 774 783 792 794 792 788 787 785 786 790 791 798 800 799 799 783 766 765 769 774 754 719 714 719 715 714 714 707 697 694 696 693 692 691 689 692
812 812 812 813 815 815 816 816 815 816 816 816 818 816 818 822 822 818 804 787 784 780 773 779 783 779 781 784 780 778 781 780 780 781 781 784 786 784 784 782 780 784 785 781 779 777 774 775 775 771 771 772 771 777 788 792 792 789 789 790 793 796 795 794 797 800 795 776 765 770 775 771 742 714 714 716 710 707 708 707 701 696 696 692 691 692 692 696
811 811 812 812 813 814 815 815 815 817 816 817 819 817 822 831 818 801 795 789 784 778 775 778 781 782 783 783 779 779 783 780 777 781 780 785 789 783 782 782 779 779 780 782 781 774 767 766 771 772 768 767 768 773 778 778 783 789 785 786 794 797 797 793 792 796 787 769 769 777 775 763 735 713 710 705 699 699 700 704 704 702 700 697 697 699 699 699
810 810 810 810 811 811 812 814 815 816 817 817 819 821 827 826 806 793 793 787 780 777 777 780 782 783 783 782 779 778 780 777 775 780 781 784 789 783 778 782 783 780 779 784 783 779 775 768 765 764 761 763 764 761 761 764 775 782 775 776 781 778 778 778 774 774 766 757 770 782 771 751 730 711 704 701 699 700 700 703 706 704 704 705 704 701 700 697
809 809 809 808 809 809 810 812 814 815 817 818 820 824 823 811 797 794 792 785 781 778 777 780 781 781 782 781 780 777 777 776 777 781 781 782 783 777 771 773 779 780 782 784 780 779 781 767 755 759 761 761 761 757 757 762 770 776 775 775 773 763 760 763 759 754 755 760 767 770 758 738 720 705 701 703 702 700 701 703 703 702 703 706 703 697 697 695
808 807 807 805 805 806 808 810 812 815 816 818 821 818 807 795 791 791 787 782 781 779 780 782 780 781 782 779 778 779 777 778 781 780 779 781 779 774 771 768 770 773 774 777 773 770 776 764 753 761 763 759 760 759 759 760 763 773 778 770 764 761 757 761 760 752 759 767 754 745 741 729 716 705 698 701 700 697 700 701 700 702 702 701 699 699 699 697
806 805 804 802 801 803 805 807 810 813 815 818 817 805 792 786 784 783 782 781 781 779 782 786 781 778 780 778 777 780 779 780 781 779 779 780 774 769 769 765 765 767 762 763 764 762 766 761 751 754 756 759 768 767 761 761 761 767 770 761 758 763 760 763 770 763 763 765 746 733 731 726 723 713 698 697 697 692 695 697 697 700 698 695 696 699 701 701
805 804 801 797 796 798 802 805 808 811 814 815 809 796 787 784 779 777 779 779 780 779 783 788 782 775 778 779 776 776 779 780 781 781 780 777 769 762 762 760 760 763 759 758 763 763 765 764 754 751 754 760 769 769 761 763 765 762 761 759 759 764 761 761 769 767 763 759 747 736 729 726 726 714 699 698 697 691 694 696 695 696 696 696 698 699 700 703
805 805 799 792 791 793 797 802 805 810 812 808 802 793 785 780 777 776 777 776 779 782 784 785 782 778 778 778 776 775 777 779 781 781 778 774 766 757 755 757 757 761 763 762 765 764 766 769 762 755 758 761 763 764 759 759 764 766 764 763 762 762 760 758 760 760 756 751 744 737 731 724 715 703 698 700 696 691 695 696 695 697 699 701 701 700 700 701
805 805 798 790 790 790 794 801 804 807 805 797 793 788 782 779 778 776 776 777 778 780 782 782 781 781 778 775 777 777 777 778 778 779 776 770 765 757 754 756 756 760 765 765 765 764 765 771 766 757 760 763 758 754 753 751 755 762 764 764 763 761 759 759 757 753 751 750 747 742 734 721 706 696 696 698 696 694 697 698 699 700 701 701 701 701 701 700
805 805 798 790 790 790 793 800 801 801 798 792 789 786 782 780 778 776 777 779 778 777 778 779 779 779 778 777 777 777 778 778 775 777 775 769 768 764 757 755 755 759 764 765 766 766 765 768 765 758 758 757 748 746 749 749 750 755 758 757 758 758 760 764 760 749 746 748 743 740 734 719 702 695 693 695 698 698 699 701 701 701 701 700 701 704 706 707
805 804 796 790 791 791 793 797 795 794 794 790 785 784 782 780 778 778 778 778 780 778 777 779 778 777 778 777 776 776 778 778 775 775 774 768 767 764 758 759 763 766 767 768 769 770 770 771 769 762 756 750 745 746 751 752 751 755 757 755 755 756 758 763 758 746 743 742 735 734 733 718 700 696 695 695 697 699 701 703 703 702 701 703 708 713 715 717
805 801 793 790 791 791 793 795 793 792 790 785 782 781 781 781 780 779 778 778 780 780 778 778 777 777 776 775 775 776 777 777 773 770 770 767 764 764 764 765 767 768 768 770 770 771 775 774 770 764 757 753 750 748 751 757 758 759 758 756 757 756 754 754 751 747 746 744 740 739 734 721 707 702 701 699 699 700 702 705 708 711 714 717 722 724 724 724
806 802 795 791 790 791 792 790 788 789 788 786 785 783 780 781 780 778 778 778 778 779 779 778 776 776 775 774 776 778 777 777 773 768 769 769 766 770 775 771 768 770 771 773 773 774 777 773 769 768 764 759 755 749 750 756 761 761 757 752 754 754 754 754 753 754 753 747 744 743 733 721 713 708 707 706 704 699 703 716 726 730 733 735 734 732 730 728
805 801 796 792 790 792 791 787 787 788 787 786 786 784 783 782 777 775 777 777 777 777 779 780 779 779 779 780 782 782 780 780 779 774 773 774 770 772 778 775 773 774 777 779 777 777 779 773 769 773 770 763 758 753 751 752 757 761 756 750 751 751 753 754 752 753 749 737 736 737 727 717 714 712 709 708 707 706 717 736 743 742 744 744 741 739 736 733
805 801 797 793 791 792 791 790 791 789 786 786 785 782 783 780 774 773 775 775 775 775 777 779 780 782 784 783 782 781 778 780 782 778 776 777 773 774 779 779 776 778 779 780 779 778 780 774 769 770 769 762 758 754 753 754 758 760 755 750 751 751 752 753 752 749 742 732 729 724 718 716 715 712 712 719 727 733 741 751 751 748 749 748 745 745 742 739
806 804 799 795 793 792 790 791 793 791 789 789 786 781 779 777 774 773 774 774 775 776 776 776 777 780 781 780 779 779 776 777 779 778 779 781 779 779 782 780 779 781 780 781 782 781 783 779 770 767 766 762 760 759 758 761 762 760 757 754 753 752 751 753 752 745 739 737 730 719 717 719 714 716 731 745 752 754 753 754 755 754 753 750 749 747 744 743
806 804 799 797 799 797 793 794 796 795 793 793 791 785 781 778 776 775 776 777 777 777 777 777 780 784 784 783 783 781 778 776 777 780 783 787 787 786 782 779 782 784 782 784 784 782 786 784 772 769 768 764 766 767 765 765 764 761 760 758 755 754 752 751 747 740 739 740 731 723 724 720 718 734 755 763 763 761 758 756 756 755 754 752 750 748 746 745
806 805 802 801 803 802 800 799 800 799 797 796 794 789 784 783 781 779 780 781 780 779 778 779 786 791 792 790 788 786 783 781 783 786 789 791 791 790 787 784 783 785 786 787 785 783 786 783 770 769 773 770 769 768 764 764 763 760 759 758 755 754 751 748 745 741 742 737 729 730 731 724 735 758 765 763 765 764 760 757 755 755 754 752 751 749 747 746
806 807 805 805 806 805 803 802 801 802 801 797 794 790 786 786 785 782 783 785 784 782 779 782 790 796 796 795 794 792 788 789 792 793 794 796 793 791 793 790 786 788 789 789 787 784 783 779 769 771 778 774 766 763 762 762 762 760 758 755 754 751 747 746 745 740 736 731 726 729 726 724 747 769 767 763 765 761 758 758 756 754 754 752 751 749 748 747
806 806 806 809 809 804 804 804 803 804 802 796 793 789 786 787 789 789 788 786 786 786 785 790 797 799 798 798 798 796 792 793 797 795 795 799 796 792 795 792 789 792 791 788 787 785 784 782 777 779 784 776 765 763 763 760 762 762 759 754 750 747 744 740 734 730 730 730 727 725 726 737 757 769 766 764 763 759 758 758 755 754 753 752 751 749 748 747
805 806 805 809 810 805 804 807 804 803 800 795 793 792 791 792 795 795 791 788 791 794 795 798 800 801 801 800 799 799 796 795 797 796 795 796 794 793 794 792 790 792 790 788 788 786 785 785 782 783 785 776 766 764 763 765 770 764 753 746 741 738 737 732 729 736 744 744 740 738 746 760 768 767 765 764 760 758 758 756 755 754 753 751 750 749 748 747